• In Latvia
  • List of Countries
  • For 7 days
  • Water Temperature
  • Satellite Maps
  • Weather Map
  • Weather Widgets
  • user-avatar
    Login

    Hourly Weather Andora

    Today, 2 December, Friday

    Time Temperature Precipitation Wind Pressure Humidity
    00:00 -6°C° 0 mm 0 mps 623 mmHg 79%
    01:00 -6°C° 0 mm 0 mps 622 mmHg 77%
    02:00 -6°C° 0 mm 0 mps 622 mmHg 75%
    03:00 -6°C° 0 mm 0 mps 621 mmHg 73%
    04:00 -6°C° 0 mm 0 mps 621 mmHg 72%
    05:00 -6°C° 0 mm 0 mps 621 mmHg 71%
    06:00 -6°C° 0 mm 1 mps 621 mmHg 69%
    07:00 -2°C° 0 mm 1 mps 622 mmHg 62%
    08:00 0°C° 0 mm 1 mps 623 mmHg 55%
    09:00 +3°C° 0 mm 1 mps 624 mmHg 48%
    10:00 +4°C° 0 mm 1 mps 624 mmHg 45%
    11:00 +6°C° 0 mm 1 mps 625 mmHg 43%
    12:00 +7°C° 0 mm 1 mps 625 mmHg 42%
    13:00 +6°C° 0 mm 1 mps 624 mmHg 50%
    14:00 +5°C° 0 mm 1 mps 623 mmHg 57%
    15:00 +4°C° 0 mm 1 mps 623 mmHg 64%
    16:00 +2°C° 0 mm 1 mps 622 mmHg 69%
    17:00 -1°C° 0 mm 1 mps 620 mmHg 73%
    18:00 -3°C° 0 mm 1 mps 619 mmHg 78%
    19:00 -3°C° 0 mm 1 mps 619 mmHg 74%
    20:00 -4°C° 0 mm 1 mps 619 mmHg 71%
    21:00 -5°C° 0 mm 0 mps 619 mmHg 68%
    22:00 -5°C° 0 mm 0 mps 618 mmHg 66%
    23:00 -5°C° 0 mm 0 mps 618 mmHg 65%

    Tomorrow, 3 December, Saturday

    Time Temperature Precipitation Wind Pressure Humidity
    00:00 -6°C° 0 mm 0 mps 618 mmHg 63%
    01:00 -6°C° 0 mm 0 mps 618 mmHg 63%
    02:00 -6°C° 0 mm 0 mps 618 mmHg 62%
    03:00 -6°C° 0 mm 0 mps 618 mmHg 61%
    04:00 -6°C° 0 mm 1 mps 618 mmHg 58%
    05:00 -6°C° 0 mm 1 mps 618 mmHg 55%
    06:00 -6°C° 0 mm 1 mps 618 mmHg 53%
    07:00 -3°C° 0 mm 1 mps 619 mmHg 47%
    08:00 -1°C° 0 mm 1 mps 620 mmHg 42%
    09:00 +2°C° 0 mm 1 mps 621 mmHg 37%
    10:00 +3°C° 0 mm 1 mps 622 mmHg 36%
    11:00 +5°C° 0 mm 1 mps 622 mmHg 35%
    12:00 +5°C° 0 mm 2 mps 623 mmHg 34%
    13:00 +4°C° 0 mm 2 mps 622 mmHg 40%
    14:00 +3°C° 0 mm 2 mps 622 mmHg 46%
    15:00 +3°C° 0 mm 2 mps 621 mmHg 53%
    16:00 +1°C° 0 mm 2 mps 621 mmHg 57%
    17:00 -2°C° 0 mm 2 mps 620 mmHg 60%
    18:00 -4°C° 0 mm 2 mps 620 mmHg 64%
    19:00 -4°C° 0 mm 2 mps 620 mmHg 67%
    20:00 -4°C° 0 mm 2 mps 620 mmHg 69%
    21:00 -4°C° 0 mm 2 mps 620 mmHg 72%
    22:00 -3°C° 0 mm 2 mps 620 mmHg 75%
    23:00 -3°C° 0 mm 2 mps 620 mmHg 79%

    Day after tomorrow, 4 December, Sunday

    Time Temperature Precipitation Wind Pressure Humidity
    00:00 -3°C° 0 mm 2 mps 620 mmHg 83%
    01:00 -3°C° 0 mm 2 mps 620 mmHg 84%
    02:00 -2°C° 0 mm 2 mps 620 mmHg 86%
    03:00 -2°C° 0 mm 2 mps 621 mmHg 88%
    04:00 -2°C° 0 mm 2 mps 620 mmHg 89%
    05:00 -2°C° 0 mm 2 mps 620 mmHg 89%
    06:00 -2°C° 0 mm 2 mps 620 mmHg 90%
    07:00 -1°C° 0 mm 2 mps 621 mmHg 85%
    08:00 +1°C° 0 mm 2 mps 622 mmHg 81%
    09:00 +2°C° 0 mm 2 mps 623 mmHg 77%
    10:00 +3°C° 0 mm 3 mps 623 mmHg 73%
    11:00 +4°C° 0 mm 3 mps 623 mmHg 69%
    12:00 +5°C° 0 mm 3 mps 624 mmHg 66%
    13:00 +5°C° 0 mm 3 mps 623 mmHg 69%
    14:00 +4°C° 0 mm 3 mps 623 mmHg 72%
    15:00 +5°C° 0 mm 2 mps 623 mmHg 75%
    16:00 +3°C° 0.1 mm 2 mps 623 mmHg 78%
    17:00 +2°C° 0.1 mm 2 mps 623 mmHg 82%
    18:00 +1°C° 0.1 mm 2 mps 623 mmHg 86%
    19:00 +1°C° 0.1 mm 2 mps 623 mmHg 87%
    20:00 +2°C° 0.1 mm 2 mps 624 mmHg 89%
    21:00 +2°C° 0.1 mm 2 mps 624 mmHg 90%
    22:00 +2°C° 0.1 mm 2 mps 624 mmHg 91%
    23:00 +1°C° 0.1 mm 2 mps 624 mmHg 92%

    5 December, Monday

    Time Temperature Precipitation Wind Pressure Humidity
    00:00 +1°C° 0.1 mm 2 mps 624 mmHg 93%
    01:00 +1°C° 0 mm 2 mps 624 mmHg 91%
    02:00 +1°C° 0 mm 2 mps 624 mmHg 90%
    03:00 +1°C° 0 mm 2 mps 624 mmHg 88%
    04:00 +1°C° 0 mm 2 mps 624 mmHg 86%
    05:00 +1°C° 0 mm 2 mps 624 mmHg 84%
    06:00 -1°C° 0 mm 2 mps 624 mmHg 82%
    07:00 +1°C° 0 mm 2 mps 625 mmHg 79%
    08:00 +2°C° 0 mm 2 mps 626 mmHg 76%
    09:00 +3°C° 0 mm 2 mps 626 mmHg 74%
    10:00 +4°C° 0 mm 2 mps 627 mmHg 71%
    11:00 +5°C° 0 mm 2 mps 627 mmHg 69%
    12:00 +7°C° 0 mm 2 mps 627 mmHg 67%
    13:00 +6°C° 0 mm 2 mps 627 mmHg 71%
    14:00 +6°C° 0 mm 2 mps 627 mmHg 75%
    15:00 +5°C° 0 mm 2 mps 627 mmHg 78%
    16:00 +4°C° 0 mm 1 mps 627 mmHg 83%
    17:00 +3°C° 0 mm 1 mps 626 mmHg 88%
    18:00 +1°C° 0 mm 1 mps 626 mmHg 92%
    19:00 +1°C° 0 mm 1 mps 626 mmHg 92%
    20:00 +1°C° 0 mm 1 mps 626 mmHg 92%
    21:00 0°C° 0 mm 1 mps 626 mmHg 91%
    22:00 0°C° 0 mm 1 mps 626 mmHg 91%
    23:00 0°C° 0 mm 1 mps 626 mmHg 91%

    6 December, Tuesday

    Time Temperature Precipitation Wind Pressure Humidity
    00:00 0°C° 0 mm 1 mps 626 mmHg 91%
    01:00 0°C° 0 mm 1 mps 626 mmHg 91%
    02:00 0°C° 0 mm 1 mps 626 mmHg 90%
    03:00 -1°C° 0 mm 1 mps 626 mmHg 90%
    04:00 -1°C° 0 mm 1 mps 626 mmHg 89%
    05:00 -1°C° 0 mm 1 mps 626 mmHg 88%
    06:00 -1°C° 0 mm 1 mps 626 mmHg 87%
    07:00 +1°C° 0 mm 1 mps 627 mmHg 81%
    08:00 +3°C° 0 mm 1 mps 628 mmHg 75%
    09:00 +5°C° 0 mm 1 mps 629 mmHg 69%
    10:00 +6°C° 0 mm 1 mps 630 mmHg 65%
    11:00 +6°C° 0 mm 0 mps 630 mmHg 61%
    12:00 +7°C° 0 mm 0 mps 631 mmHg 56%
    13:00 +7°C° 0 mm 0 mps 630 mmHg 62%
    14:00 +6°C° 0 mm 0 mps 630 mmHg 67%
    15:00 +6°C° 0 mm 1 mps 629 mmHg 73%
    16:00 +4°C° 0 mm 1 mps 629 mmHg 77%
    17:00 +3°C° 0 mm 1 mps 628 mmHg 82%
    18:00 +1°C° 0 mm 1 mps 628 mmHg 87%
    19:00 0°C° 0 mm 1 mps 628 mmHg 83%
    20:00 0°C° 0 mm 1 mps 628 mmHg 80%
    21:00 -2°C° 0 mm 2 mps 628 mmHg 76%
    22:00 -2°C° 0 mm 2 mps 628 mmHg 75%
    23:00 -2°C° 0 mm 2 mps 628 mmHg 74%

    7 December, Wednesday

    Time Temperature Precipitation Wind Pressure Humidity
    00:00 -2°C° 0 mm 2 mps 628 mmHg 73%
    01:00 -2°C° 0 mm 2 mps 628 mmHg 74%
    02:00 -2°C° 0 mm 2 mps 627 mmHg 75%
    03:00 -2°C° 0 mm 2 mps 627 mmHg 76%
    04:00 -2°C° 0 mm 2 mps 627 mmHg 77%
    05:00 -2°C° 0 mm 2 mps 627 mmHg 78%
    06:00 -2°C° 0 mm 2 mps 628 mmHg 78%
    07:00 -1°C° 0 mm 2 mps 628 mmHg 73%
    08:00 +2°C° 0 mm 2 mps 629 mmHg 68%
    09:00 +3°C° 0 mm 2 mps 630 mmHg 62%
    10:00 +5°C° 0 mm 2 mps 630 mmHg 58%
    11:00 +7°C° 0 mm 1 mps 631 mmHg 53%
    12:00 +9°C° 0 mm 1 mps 631 mmHg 49%
    13:00 +8°C° 0 mm 1 mps 631 mmHg 54%
    14:00 +7°C° 0 mm 1 mps 630 mmHg 60%
    15:00 +7°C° 0 mm 1 mps 630 mmHg 65%
    16:00 +5°C° 0 mm 1 mps 630 mmHg 70%
    17:00 +3°C° 0 mm 1 mps 629 mmHg 75%
    18:00 +1°C° 0 mm 1 mps 628 mmHg 80%
    19:00 -1°C° 0 mm 2 mps 629 mmHg 80%
    20:00 -2°C° 0 mm 2 mps 629 mmHg 79%
    21:00 -2°C° 0 mm 2 mps 629 mmHg 79%
    22:00 0°C° 0 mm 1 mps 629 mmHg 80%
    23:00 0°C° 0 mm 1 mps 629 mmHg 81%
    Show more